[[{"header":{"parameterUnit":"m.s-1","parameterCategory":1,"la1":30.2991,"la2":30.254,"lo1":-89.0895,"lo2":-89.0444,"dy":0.0017,"dx":0.0017,"nx":28,"ny":28,"refTime":"2026-01-31T03:00:00:Z","depth":0,"parameterNumber":2,"parameterNumberName":"U-component_of_WINDS"},"data":[0,0,0,0,0,0,0,0,0,0,0,0,0,0,0,0,0,0,0,0,0,0,0,0,0,0,0,0,0,0,0,0,0,0,0,0,0,0,0,0,0,0,0,0,0,0,0,0,0,0,0,0,0,0,0,0,0,0,2.056,2.056,0,2.0554,2.0554,2.0554,2.053,2.053,2.0529,2.0529,2.0522,2.0523,2.0523,0,0,0,0,0,0,0,0,0,0,0,0,0,2.0551,2.0551,2.056,2.056,2.056,2.0554,2.0554,2.0554,2.0531,2.053,2.0529,2.0529,2.0522,2.0523,2.0523,0,0,0,0,0,0,0,0,0,0,0,0,0,2.0551,2.0551,2.056,2.0547,2.0546,2.0554,2.0554,2.0554,2.0531,2.053,2.0529,2.0528,2.0522,2.0523,2.0523,2.0543,0,0,2.0525,2.0525,0,0,0,0,0,0,0,0,2.0551,2.0551,2.0549,2.0548,2.0547,2.0542,2.0549,2.055,2.0531,2.0537,2.0529,2.0528,2.053,2.0529,2.053,2.0542,2.0542,2.0525,2.0525,2.0525,2.0525,0,0,0,0,0,0,0,2.0551,2.0551,2.0558,2.0549,2.0548,2.0542,2.0541,2.0549,2.0538,2.0536,2.0534,2.0534,2.0529,2.053,2.053,2.0542,2.0525,2.0525,2.0525,2.0526,2.057,2.0571,0,0,0,0,0,0,2.0553,2.0552,2.0558,2.0558,2.0547,2.0543,2.0542,2.0545,2.0538,2.0536,2.0535,2.0533,2.0529,2.0529,2.0529,2.0552,2.0525,2.0526,2.0526,2.0569,2.0571,2.0571,0,0,0,0,0,0,2.0553,2.0554,2.0558,2.0554,2.0554,2.0544,2.0547,2.0545,2.0546,2.0537,2.0534,2.0538,2.0529,2.0529,2.054,2.0551,2.0526,2.0526,2.0568,2.057,2.0571,2.0596,0,0,0,0,0,0,2.0553,2.0554,2.0561,2.0554,2.0555,2.0568,2.0548,2.0545,2.0547,2.0544,2.0539,2.0537,2.0528,2.0539,2.054,2.0551,2.0527,2.0567,2.0569,2.0571,2.0594,2.0598,2.0602,0,0,0,0,0,2.0552,2.0568,2.0561,2.0562,2.0563,2.0569,2.0569,2.0558,2.0548,2.0555,2.0549,2.0537,2.055,2.054,2.0541,2.0553,2.0566,2.0569,2.057,2.0593,2.0598,2.0602,0,0,0,0,0,0,2.0575,2.0567,2.0559,2.0573,2.0572,2.0565,2.0573,2.0564,2.0565,2.0563,2.055,2.0549,2.0562,2.0559,2.0548,2.0572,2.0556,2.0559,2.0573,2.0577,2.0581,2.0581,2.0527,0,0,0,0,0,2.0582,2.0587,2.058,2.0593,2.0593,2.0584,2.0586,2.0578,2.0576,2.0575,2.057,2.0569,2.0572,2.0575,2.0578,2.0595,2.0593,2.0603,2.0607,2.061,2.0612,2.062,2.0625,2.0578,2.0578,2.0578,0,0,2.0596,2.0592,2.0596,2.0597,2.0596,2.0602,2.0583,2.059,2.0594,2.0576,2.0586,2.0583,2.058,2.0594,2.06,2.0592,2.0625,2.0613,2.0615,2.0615,2.0623,2.0627,2.0631,2.0579,2.0579,2.0579,0,0,2.0623,2.0621,2.0632,2.0631,2.0629,2.0623,2.0625,2.062,2.0617,2.0627,2.0614,2.0619,2.0626,2.0625,2.0625,2.0655,2.0643,2.0656,2.0675,2.0683,2.0687,2.069,2.07,2.0704,2.0658,2.0658,2.0658,0,2.064,2.0649,2.0639,2.0647,2.0648,2.0633,2.0644,2.0643,2.0642,2.0643,2.0634,2.0643,2.064,2.0654,2.0661,2.0662,2.0665,2.0656,2.0687,2.069,2.0693,2.0703,2.0706,2.066,2.066,2.0659,2.0659,0,2.067,2.0676,2.0685,2.0685,2.0687,2.0697,2.0688,2.0692,2.0685,2.068,2.069,2.0687,2.0689,2.0692,2.0685,2.0705,2.07,2.069,2.0674,2.0699,2.0708,2.0711,2.0662,2.0661,2.0661,2.066,0,0,2.0709,2.0705,2.0708,2.0708,2.0706,2.071,2.072,2.0722,2.0725,2.0726,2.0733,2.074,2.0731,2.0731,2.0724,2.0732,2.0755,2.0721,2.072,2.0726,2.0777,2.0784,2.0788,2.0749,2.0749,2.075,2.0777,0,2.0735,2.075,2.0742,2.0758,2.0764,2.0751,2.0759,2.0759,2.0755,2.0759,2.0755,2.076,2.0748,2.0748,2.0755,2.0751,2.0765,2.0749,2.0755,2.0755,2.0754,2.0792,2.0799,2.0825,2.078,2.0781,2.0781,0,2.0766,2.0769,2.0786,2.0783,2.0785,2.0792,2.0795,2.0799,2.0799,2.0796,2.0797,2.0788,2.0797,2.0783,2.0795,2.0785,2.0787,2.0785,2.0786,2.0785,2.0768,2.0791,2.0833,2.0836,2.0786,2.0786,2.0786,0,2.0793,2.08,2.0811,2.0812,2.0809,2.0815,2.0814,2.0813,2.0815,2.0817,2.0819,2.0822,2.0824,2.0827,2.0819,2.0809,2.0832,2.0817,2.0829,2.0829,2.0833,2.0833,2.0874,2.0837,2.0837,2.0837,2.0837,0,2.0821,2.0832,2.0823,2.083,2.0842,2.0833,2.0845,2.0843,2.0842,2.0849,2.0838,2.0844,2.0834,2.084,2.0834,2.0845,2.0846,2.0843,2.0841,2.0843,2.0844,2.0843,2.0841,2.0838,2.0838,2.0837,2.0837,0,2.0852,2.0846,2.0858,2.0855,2.0854,2.0863,2.0861,2.0867,2.0863,2.0871,2.0873,2.0867,2.0872,2.0866,2.0871,2.0867,2.0882,2.0878,2.0882,2.088,2.0892,2.0891,2.0934,2.0939,2.09,2.09,2.09,0,2.0869,2.0877,2.0876,2.088,2.088,2.0885,2.0888,2.0881,2.0884,2.0885,2.0891,2.0896,2.09,2.0909,2.0905,2.0909,2.0905,2.092,2.0905,2.0907,2.0904,2.0903,2.0904,2.0922,2.0923,2.0923,2.0923,0,2.0901,2.0899,2.0903,2.0907,2.0911,2.0914,2.0916,2.0919,2.0912,2.0916,2.0922,2.0925,2.0931,2.0936,2.0939,2.0938,2.0929,2.0928,2.0931,2.0933,2.0934,2.0933,2.0889,2.0927,2.0927,2.0926,2.0926,2.0926,2.0925,2.0932,2.0932,2.0938,2.0939,2.0941,2.0947,2.0945,2.095,2.0954,2.095,2.0957,2.0957,2.0961,2.0961,2.0967,2.096,2.0965,2.0966,2.0966,2.0968,2.0935,2.0968,2.0968,2.0968,2.0967,2.0967,0,2.0956,2.0956,2.0961,2.0965,2.097,2.0962,2.0965,2.0969,2.0975,2.0977,2.0981,2.0988,2.0994,2.0991,2.0995,2.1,2.0997,2.1002,2.1,2.1,2.0974,2.097,2.1005,2.1005,2.1005,2.1005,2.1005,2.1005,2.0972,2.0983,2.0981,2.0993,2.0993,2.1,2.1002,2.1004,2.1005,2.1014,2.1019,2.1017,2.1017,2.1022,2.1026,2.1026,2.1027,2.1034,2.1031,2.1006,2.1002,2.0999,2.0995,2.1034,2.1034,2.1057,2.1057,2.1058]},{"header":{"parameterUnit":"m.s-1","parameterCategory":1,"la1":30.2991,"la2":30.254,"lo1":-89.0895,"lo2":-89.0444,"dy":0.0017,"dx":0.0017,"nx":28,"ny":28,"refTime":"2026-01-31T03:00:00:Z","depth":0,"parameterNumber":3,"parameterNumberName":"V-component_of_WINDS"},"data":[0,0,0,0,0,0,0,0,0,0,0,0,0,0,0,0,0,0,0,0,0,0,0,0,0,0,0,0,0,0,0,0,0,0,0,0,0,0,0,0,0,0,0,0,0,0,0,0,0,0,0,0,0,0,0,0,0,0,-6.1908,-6.191,0,-6.2105,-6.2107,-6.211,-6.2079,-6.2076,-6.2073,-6.207,-6.2269,-6.2277,-6.2285,0,0,0,0,0,0,0,0,0,0,0,0,0,-6.1501,-6.1509,-6.1908,-6.191,-6.1913,-6.2105,-6.2107,-6.211,-6.208,-6.2076,-6.2072,-6.2068,-6.2266,-6.2276,-6.2286,0,0,0,0,0,0,0,0,0,0,0,0,0,-6.1686,-6.1511,-6.1907,-6.1921,-6.1924,-6.2104,-6.2108,-6.2111,-6.2081,-6.2076,-6.2071,-6.2066,-6.2263,-6.2275,-6.2287,-6.2466,0,0,-6.2326,-6.2331,0,0,0,0,0,0,0,0,-6.1676,-6.1701,-6.1916,-6.192,-6.1924,-6.2063,-6.2037,-6.223,-6.2082,-6.2021,-6.2069,-6.2064,-6.2204,-6.2221,-6.2269,-6.2475,-6.2483,-6.2327,-6.2335,-6.234,-6.2344,0,0,0,0,0,0,0,-6.1663,-6.1692,-6.1986,-6.1919,-6.1924,-6.1916,-6.1937,-6.2074,-6.2138,-6.2026,-6.2024,-6.2048,-6.2205,-6.2257,-6.2273,-6.2486,-6.2327,-6.2338,-6.2346,-6.2351,-6.2848,-6.2853,0,0,0,0,0,0,-6.1647,-6.1682,-6.1979,-6.1992,-6.1785,-6.1927,-6.195,-6.2023,-6.2137,-6.2149,-6.2052,-6.2046,-6.2238,-6.2259,-6.228,-6.2497,-6.234,-6.2352,-6.2359,-6.2842,-6.2849,-6.2855,0,0,0,0,0,0,-6.1638,-6.1674,-6.1971,-6.1836,-6.1874,-6.194,-6.2021,-6.203,-6.2082,-6.2157,-6.2168,-6.2094,-6.2235,-6.2263,-6.242,-6.2503,-6.2357,-6.2369,-6.2836,-6.2844,-6.2852,-6.293,0,0,0,0,0,0,-6.1627,-6.1671,-6.174,-6.1838,-6.1881,-6.2109,-6.2027,-6.2037,-6.2104,-6.2097,-6.2198,-6.221,-6.2233,-6.2401,-6.2432,-6.2518,-6.2379,-6.2828,-6.284,-6.2849,-6.2921,-6.294,-6.2957,0,0,0,0,0,-6.1612,-6.1754,-6.1744,-6.178,-6.1969,-6.2114,-6.2138,-6.2162,-6.2111,-6.218,-6.2228,-6.2207,-6.2489,-6.2418,-6.2452,-6.2543,-6.2823,-6.2836,-6.2849,-6.2912,-6.2937,-6.2957,0,0,0,0,0,0,-6.1662,-6.1767,-6.1757,-6.1934,-6.2016,-6.2108,-6.2197,-6.2187,-6.2284,-6.2274,-6.2299,-6.2322,-6.2481,-6.2528,-6.2446,-6.2721,-6.2649,-6.2669,-6.2685,-6.2709,-6.2727,-6.2712,-6.2389,0,0,0,0,0,-6.1694,-6.1804,-6.1889,-6.2037,-6.2078,-6.2131,-6.2195,-6.2207,-6.2291,-6.2325,-6.2385,-6.2467,-6.2574,-6.2644,-6.2746,-6.2927,-6.2948,-6.3006,-6.3024,-6.3039,-6.3056,-6.3155,-6.3182,-6.2897,-6.2897,-6.2897,0,0,-6.1761,-6.1831,-6.1899,-6.2049,-6.2113,-6.2225,-6.216,-6.2281,-6.2365,-6.2343,-6.2496,-6.2542,-6.2635,-6.2805,-6.2883,-6.2849,-6.314,-6.3055,-6.3066,-6.3076,-6.3171,-6.3198,-6.3222,-6.2905,-6.2904,-6.2903,0,0,-6.194,-6.2005,-6.2135,-6.2201,-6.23,-6.2334,-6.2365,-6.246,-6.249,-6.2644,-6.263,-6.2728,-6.2912,-6.2979,-6.3037,-6.3241,-6.3225,-6.3274,-6.337,-6.3466,-6.3488,-6.3508,-6.3581,-6.3606,-6.3291,-6.3291,-6.3291,0,-6.201,-6.218,-6.2203,-6.2327,-6.2393,-6.2379,-6.2511,-6.2574,-6.27,-6.2746,-6.2706,-6.2936,-6.2998,-6.3183,-6.3233,-6.328,-6.3316,-6.3263,-6.3483,-6.3503,-6.3522,-6.3592,-6.3619,-6.3296,-6.3296,-6.3295,-6.3295,0,-6.2261,-6.2379,-6.2472,-6.2596,-6.2672,-6.2799,-6.2841,-6.2916,-6.292,-6.2958,-6.3114,-6.3188,-6.3305,-6.335,-6.3355,-6.3536,-6.3512,-6.3477,-6.3405,-6.3554,-6.362,-6.3647,-6.3304,-6.3302,-6.33,-6.3299,0,0,-6.2478,-6.2613,-6.2647,-6.2703,-6.281,-6.2901,-6.3027,-6.3142,-6.3205,-6.3293,-6.3399,-6.3554,-6.3523,-6.3589,-6.3602,-6.3686,-6.3843,-6.3641,-6.3644,-6.3676,-6.4046,-6.4071,-6.4101,-6.3832,-6.3838,-6.3842,-6.4038,0,-6.2667,-6.2891,-6.2916,-6.3115,-6.3223,-6.3212,-6.3321,-6.3398,-6.3437,-6.3534,-6.3575,-6.3686,-6.3636,-6.3676,-6.3759,-6.3806,-6.3917,-6.3792,-6.393,-6.3935,-6.3908,-6.4136,-6.4163,-6.4345,-6.4064,-6.4068,-6.4071,0,-6.2918,-6.3014,-6.3224,-6.3316,-6.3363,-6.3461,-6.3569,-6.3662,-6.3748,-6.377,-6.3844,-6.3846,-6.3974,-6.3897,-6.4074,-6.3989,-6.4046,-6.4078,-6.4086,-6.41,-6.4012,-6.4156,-6.4403,-6.4431,-6.4112,-6.4109,-6.4106,0,-6.3055,-6.3236,-6.3385,-6.3433,-6.3545,-6.3614,-6.3663,-6.3745,-6.3813,-6.3907,-6.3951,-6.4058,-6.4116,-6.4199,-6.4229,-6.417,-6.4404,-6.4329,-6.4426,-6.4425,-6.4476,-6.4472,-6.4736,-6.4513,-6.4512,-6.4512,-6.4511,0,-6.3264,-6.3393,-6.3448,-6.354,-6.3684,-6.3711,-6.3852,-6.3898,-6.3971,-6.4071,-6.4067,-6.416,-6.4194,-6.4293,-6.4317,-6.446,-6.4486,-6.4507,-6.4512,-6.4508,-6.4505,-6.4546,-6.4534,-6.4519,-6.4518,-6.4516,-6.4515,0,-6.3441,-6.3484,-6.3646,-6.3738,-6.3764,-6.3866,-6.3944,-6.4032,-6.4069,-6.4195,-6.4227,-6.4284,-6.44,-6.4439,-6.4579,-6.4595,-6.4761,-6.4755,-6.4733,-6.4733,-6.4827,-6.4818,-6.5127,-6.5169,-6.4918,-6.492,-6.4922,0,-6.3572,-6.3671,-6.3774,-6.3841,-6.3894,-6.4001,-6.4071,-6.41,-6.4172,-6.4278,-6.4354,-6.4469,-6.4563,-6.4748,-6.4802,-6.4909,-6.4905,-6.5006,-6.4921,-6.4914,-6.4907,-6.4901,-6.4911,-6.5022,-6.5025,-6.5027,-6.5029,0,-6.38,-6.3816,-6.3916,-6.4025,-6.4108,-6.4194,-6.4277,-6.4332,-6.4374,-6.4455,-6.4574,-6.4647,-6.479,-6.4904,-6.5013,-6.5062,-6.5053,-6.5055,-6.5083,-6.508,-6.5062,-6.5073,-6.4776,-6.5048,-6.5046,-6.5044,-6.5043,-6.5043,-6.3958,-6.4046,-6.4132,-6.4244,-6.431,-6.4388,-6.4475,-6.4523,-6.4623,-6.4743,-6.4754,-6.4882,-6.4965,-6.5111,-6.5166,-6.5266,-6.5237,-6.5278,-6.5288,-6.5298,-6.5305,-6.5046,-6.5286,-6.5285,-6.5285,-6.5284,-6.5284,0,-6.4185,-6.424,-6.4343,-6.446,-6.4548,-6.4532,-6.4623,-6.4697,-6.4811,-6.489,-6.4983,-6.5119,-6.523,-6.5292,-6.5403,-6.5471,-6.5469,-6.5499,-6.5494,-6.5505,-6.5324,-6.5289,-6.5498,-6.5498,-6.5498,-6.5498,-6.5498,-6.5498,-6.4314,-6.4461,-6.4487,-6.4667,-6.472,-6.4847,-6.49,-6.4972,-6.5035,-6.5188,-6.5281,-6.5321,-6.5393,-6.5509,-6.5609,-6.5624,-6.5665,-6.5698,-6.5711,-6.554,-6.5518,-6.5497,-6.5464,-6.5707,-6.5707,-6.5883,-6.5885,-6.5886]}]]